Regional Weather Roundup
Issued by NWS

Home | Current Version | Previous Version | Text Only | Print | Product List | Glossary On
Versions: 1 2 3 4 5 6 7 8 9 10 11 12 13 14 15 16 17 18 19 20 21 22 23 24 25 26 27 28 29 30 31 32 33 34 35 36 37 38 39 40 41 42 43 44 45 46 47 48 49 50
000
ASUS43 KDMX 241201
RWRIA

WEATHER ROUNDUP FOR IOWA
NATIONAL WEATHER SERVICE DES MOINES IA
600 AM CST TUE JAN 24 2017

NOTE: "FAIR" INDICATES FEW OR NO CLOUDS BELOW 12,000 FEET WITH NO
SIGNIFICANT WEATHER AND/OR OBSTRUCTIONS TO VISIBILITY.

* - THESE STATIONS ARE NOT NWS STATIONS...THUS NOT UNDER NWS
QUALITY CONTROL.  THEY ALSO DO NOT REPORT WEATHER SUCH
AS PRECIPITATION OR FOG.

IAZ001>003-012>014-020>022-031>034-043>046-241300-
   NORTHWEST IOWA

CITY           SKY/WX    TMP DP  RH WIND       PRES   REMARKS
CARROLL *      CLOUDY    32  32 100 SE12      29.82R WCI  23
CHEROKEE *     CLOUDY    31  30  94 SE7       29.82R WCI  25
DENISON *      CLOUDY    30  28  93 E8        29.79R WCI  23
LE MARS *      CLOUDY    32  30  93 SE8       29.81S WCI  25
ORANGE CITY *  CLOUDY    30  30 100 SE7       29.80R WCI  23
SHELDON *      CLOUDY    30  30 100 SE10G16   29.80R WCI  21
SIOUX CITY     CLOUDY    32  29  88 E9        29.78F WCI  24
6HR MIN TEMP:  32; 6HR MAX TEMP:  33;

SPENCER        CLOUDY    31  28  89 E7        29.83R WCI  24
6HR MIN TEMP:  31; 6HR MAX TEMP:  32;

STORM LAKE *   CLOUDY    30  28  93 SE14      29.81R WCI  20
$$

IAZ055>058-069>071-079>083-090>094-241300-
   SOUTHWEST IOWA

CITY           SKY/WX    TMP DP  RH WIND       PRES   REMARKS
ATLANTIC *     CLOUDY    30  28  93 E12G17    29.80F WCI  21
AUDUBON *      CLOUDY    30  27  86 E9        29.82R FOG     WCI  22
CLARINDA *     CLOUDY    32  32 100 E8G16     29.81S WCI  25
COUNCIL BLFS * CLOUDY    30  30 100 E9G16     29.76F FOG     WCI  22
CRESTON *      CLOUDY    28  28 100 E14       29.81F FOG     WCI  17
HARLAN  *      CLOUDY    30  30 100 E9G16     29.82F WCI  22
LAMONI         CLOUDY    29  27  92 E9        29.81S WCI  20
6HR MIN TEMP:  29; 6HR MAX TEMP:  31;

RED OAK *      CLOUDY    30  30 100 E12       29.79F WCI  21
SHENANDOAH *   CLOUDY    30  30 100 E13       29.78S FOG     WCI  20
$$

IAZ047>049-059>061-072>074-084-241300-
   CENTRAL IOWA

CITY           SKY/WX    TMP DP  RH WIND       PRES   REMARKS
AMES           CLOUDY    32  30  92 E5        29.84F WCI  27
6HR MIN TEMP:  31; 6HR MAX TEMP:  33;

ANKENY *       CLOUDY    32  28  86 SE7       29.85F WCI  26
BOONE *        CLOUDY    32  32 100 E8        29.82F WCI  25
CHARITON *     CLOUDY    30  28  93 E8        29.84S WCI  23
DES MOINES     CLOUDY    32  28  85 SE10      29.85S WCI  24
6HR MIN TEMP:  31; 6HR MAX TEMP:  34;

GRINNELL*      CLOUDY    32  28  87 E3        29.86F
KNOXVILLE *    CLOUDY    30  28  93 E7        29.84F WCI  23
MARSHALLTOWN   CLOUDY    32  29  88 NE5       29.86S WCI  27
6HR MIN TEMP:  32; 6HR MAX TEMP:  33;

NEWTON *       CLOUDY    32  28  86 SE3       29.85S
PELLA *        CLOUDY    32  29  90 E5        29.87F WCI  27
PERRY *        CLOUDY    32  30  92 E9        29.84S WCI  24
$$

IAZ004>006-015-016-023>025-035-036-241300-
   NORTH CENTRAL IOWA

CITY           SKY/WX    TMP DP  RH WIND       PRES   REMARKS
ALGONA *       CLOUDY    32  30  93 E7        29.84F WCI  26
CLARION *      CLOUDY    32  32 100 SE6       29.85S WCI  26
ESTHERVILLE    CLOUDY    30  29  96 NE9       29.82F WCI  22
6HR MIN TEMP:  30; 6HR MAX TEMP:  31;

FORT DODGE *   CLOUDY    30  27  86 E9        29.84F WCI  22
MASON CITY     CLOUDY    31  27  85 NE8       29.86S WCI  23
6HR MIN TEMP:  31; 6HR MAX TEMP:  31;

FOREST CITY *  CLOUDY    32  30  93 NE6       29.85S WCI  26
WEBSTER CITY * CLOUDY    32 N/A N/A E8        29.83F WCI  25
IOWA FALLS *   CLOUDY    32  29  86 E3        29.87R
$$

IAZ007>011-017>019-026>030-037>042-050>054-066-241300-
   NORTHEAST IOWA

CITY           SKY/WX    TMP DP  RH WIND       PRES   REMARKS
CEDAR RAPIDS   CLOUDY    32  27  81 W3        29.86F
6HR MIN TEMP:  31; 6HR MAX TEMP:  33;

CHARLES CITY * CLOUDY    32  32 100 NE7       29.86S WCI  26
CLINTON *      CLOUDY    32  31  96 W3        29.89R
DECORAH *      CLOUDY    32  28  86 CALM      29.84S
DUBUQUE        CLOUDY    32  29  88 NW5       29.87R WCI  27
6HR MIN TEMP:  32; 6HR MAX TEMP:  33;

MONTICELLO *   CLOUDY    32  28  86 SW3       29.88R
OELWEIN *      CLOUDY    32  30  93 CALM      29.87R
WATERLOO       CLOUDY    32  26  78 NE3       29.87S
6HR MIN TEMP:  32; 6HR MAX TEMP:  33;

$$

IAZ064-065-067-068-078-241300-
   EAST CENTRAL IOWA

CITY           SKY/WX    TMP DP  RH WIND       PRES   REMARKS
DAVENPORT      CLOUDY    33  31  92 CALM      29.88S
6HR MIN TEMP:  32; 6HR MAX TEMP:  33;

IOWA CITY      CLOUDY    33  28  81 W3        29.90S
6HR MIN TEMP:  33; 6HR MAX TEMP:  35;

MUSCATINE *    CLOUDY    34  28  80 SW3       29.90S
QUAD CITIES    CLOUDY    34  30  85 W3        29.88S
6HR MIN TEMP:  34; 6HR MAX TEMP:  35;

$$

IAZ062-063-075>077-085>089-095>099-241300-
   SOUTHEAST IOWA

CITY           SKY/WX    TMP DP  RH WIND       PRES   REMARKS
BURLINGTON     CLOUDY    33  30  88 CALM      29.88S
6HR MIN TEMP:  32; 6HR MAX TEMP:  33;

FAIRFIELD *    CLOUDY    32  28  86 E6        29.87F WCI  26
FORT MADISON * CLOUDY    32  30  93 CALM      29.89F
KEOKUK *       CLOUDY    32 N/A N/A CALM      29.88F
OSKALOOSA *    CLOUDY    31  29  92 SE6       29.87F WCI  25
CENTERVILLE *  CLOUDY    30  30 100 E3        29.85F
OTTUMWA        CLOUDY    31  28  89 E6        29.86S WCI  25
6HR MIN TEMP:  31; 6HR MAX TEMP:  33;

WASHINGTON *   CLOUDY    32  30  93 S6        29.90R WCI  26
$$

ABBREVIATIONS USED IN REMARKS
   TC - TEMPERATURES IN CELSIUS
  WCI - WIND CHILL INDEX
   HX - HEAT INDEX
  VSB - VISIBILITY
$$





USA.gov is the U.S. government's official web portal to all federal, state and local government web resources and services.